COSMOS 800

Satellite information

Favourite Embed

Satellite Type and Status

PAYLOADIN ORBIT

Key statistics

Satellite COSMOS 800 at a glance.

Uptime

18052

Days in orbit

Revolutions

≈ 13.7

Per day

Orbit

LEO

Low Earth Orbit

Inclination

83.0

Latest

Satellite identification and parameters

Extended collection of information and parameters for COSMOS 800.

Object identification

Identified? True

Debris? False

Object name: COSMOS 800

International designator: 1976-011A

Object number (NORAD): 8645

Object ID (CCSDS): 8645

Country: COMMONWEALTH OF INDEPENDENT STATES (CIS)

Current information (Y/N): Y

RCS size: LARGE

Orbital parameters

Period: 104.943 minutes

Inclination: 82.9727 deg

SMA: 7369.931 km

Apoapsis: 1006.877 km

Periapsis: 976.715 km

RAAN: 10.1075 deg

Eccentricy: 0.0020463

Argument of periapsis: 217.0553 deg

Mean anomaly: 264.5746 deg

Mean motion: 13.72169148 rev/day

Mean motion (dot): 0.00000059 rev/day2

B* drag term: 0.000048006 1/REarth

Two-line elements (TLE)

Creation date: July 6, 2025, 10:36 p.m.

Reference frame: TEME

Reference center: EARTH

Epoch: July 6, 2025, 9:19 p.m. UTC

TLE line 0: 0 COSMOS 800

TLE line 1: 1 8645U 76011A 25187.88886027 .00000059 00000-0 48006-4 0 9994

TLE line 2: 2 8645 82.9727 10.1075 0020463 217.0553 264.5746 13.72169148474283

Live tracking on map

Real-time ground track for satellite COSMOS 800.

In-orbit conjunctions

A list of the most updated potential collisions computed for object COSMOS 800.

Target Orbit TCA Probability of collision Miss distance Type
FENGYUN 1C DEB SSO 2024-12-10 00:57:01 0.0002901406 540.0 (m) DEBRIS
FENGYUN 1C DEB SSO 2024-09-15 10:21:49 0.000294503 339.0 (m) DEBRIS

Associated space launch

The first soviet navigation system called Tsiklon consisted of Zaliv satellites in low earth orbit.

COSMOS 800 was lifted into orbit during the mission ‘Kosmos-3M | Zaliv 20’, on board a Kosmos-3M space rocket.

The launch took place on Feb. 3, 1976, 8:16 a.m. from 132/1 (132L).

For more information about the launch, click the button.

Launch to space Kosmos-3M | Zaliv 20
Kosmos-3M | Zaliv 20

Agency: N/A

Status: Launch Successful

Launch date: Feb. 3, 1976, 8:16 a.m. UTC

Rocket: Kosmos-3M

Launch pad: 132/1 (132L)

Location: Plesetsk Cosmodrome, Russian Federation

...

Latest news about this satellite

There are no fresh news available about this satellite. Check back as we update our databases every day.


Newsletter sign-up

Weekly statistics, charts and insights to help you stay on top of the space industry.